Wind_Speed
29 30 28 25 23 22 21 22 21 24 24 24 25 25 26 28 32 36 39 38 38 40 38 43 41 39 36 35 37 29 25 33 9 17 9 18 22 25 26 23 41 70 79 67
27 27 27 25 25 24 25 25 23 24 25 22 20 19 24 28 29 27 27 28 26 29 30 32 34 32 30 28 27 28 20 25 25 13 2 18 15 30 32 23 37 77 73 74
25 28 29 27 26 26 26 27 26 25 22 22 23 24 24 23 25 26 27 28 29 29 28 30 31 32 28 22 19 20 18 15 21 19 9 4 5 10 18 19 24 62 66 54
24 27 27 29 27 26 26 27 27 27 26 26 26 27 28 27 28 27 28 29 29 28 29 28 28 29 29 26 20 18 15 14 5 12 12 7 4 4 0 19 30 43 38 47
23 26 26 29 27 27 25 24 26 26 28 29 30 29 30 30 30 30 29 28 28 27 27 28 27 27 28 28 26 21 17 15 13 6 6 9 10 7 2 16 27 29 35 33
22 25 26 28 27 28 29 26 27 30 29 28 29 30 31 29 29 30 31 30 29 29 28 27 28 25 26 25 26 24 22 21 19 14 9 2 9 9 10 8 23 28 32 37
20 22 23 26 28 30 30 30 29 31 31 30 30 31 31 33 33 34 32 31 31 30 30 28 27 26 25 26 26 26 24 22 23 20 15 7 2 2 2 2 22 38 39 34
18 21 22 23 25 27 30 30 30 30 30 32 34 33 33 34 34 33 32 31 31 30 29 28 27 27 26 25 25 25 25 24 22 21 16 12 15 12 7 9 8 13 19 27
19 20 21 22 23 25 26 28 29 30 32 34 37 36 35 35 35 36 35 33 31 31 30 28 27 25 25 25 25 24 25 24 24 23 20 15 16 20 21 18 13 13 12 12
19 18 21 23 24 25 26 27 32 33 35 36 37 39 40 38 37 37 35 33 31 29 28 27 25 25 24 24 25 24 23 24 24 22 21 20 17 17 21 25 26 22 20 18
18 19 20 22 23 24 24 27 29 32 34 36 38 40 41 40 39 38 36 35 34 32 30 28 26 25 23 23 23 24 25 25 24 23 22 20 18 17 19 23 28 30 31 28
17 19 20 21 23 24 25 26 28 30 32 35 38 39 39 42 44 43 40 37 35 34 32 30 29 27 27 26 25 25 26 26 26 25 24 23 23 23 18 20 23 28 34 36
17 19 20 22 23 25 26 27 27 29 31 33 35 37 40 42 44 46 45 42 36 34 34 32 31 29 28 28 28 28 27 28 27 25 24 23 24 24 25 24 22 23 26 34
19 20 21 22 22 25 27 27 26 26 28 31 33 37 40 42 42 43 46 47 45 39 35 34 33 31 28 27 27 27 27 27 26 24 23 22 23 24 25 27 28 28 27 28
21 22 23 22 24 25 26 27 27 27 28 30 34 37 40 42 42 43 44 47 48 46 41 35 34 34 32 30 29 28 27 26 25 24 24 23 25 27 29 31 31 32 32 32
24 24 25 24 25 26 27 28 27 27 28 30 32 36 38 40 42 44 45 46 49 50 48 40 36 35 34 32 29 29 28 27 26 26 25 26 28 29 31 32 32 32 32 34
27 27 28 26 25 25 27 28 28 28 29 30 31 34 37 40 42 45 47 48 49 52 52 46 39 37 35 32 30 28 28 27 27 27 27 28 29 31 32 31 32 34 35 37
30 31 30 29 26 27 28 30 30 29 29 30 31 33 36 39 42 46 49 51 51 53 55 50 42 38 36 33 31 29 28 27 26 27 27 28 29 31 32 34 34 31 31 33
30 32 32 31 28 27 28 29 30 29 29 30 32 33 35 39 43 46 49 52 53 55 57 53 44 39 37 33 31 29 28 27 26 26 27 28 29 31 33 32 28 23 19 17
32 33 33 31 30 28 28 29 31 31 30 31 33 34 36 39 42 46 50 52 54 56 60 55 46 40 37 33 31 29 28 26 25 25 27 28 28 29 32 28 23 20 18 17
34 35 32 31 30 29 29 30 31 31 31 32 33 35 37 39 42 45 50 52 55 57 62 58 47 40 36 33 31 30 27 27 25 24 25 27 28 28 30 25 20 19 17 16
35 35 32 30 30 30 30 31 32 32 32 32 34 35 38 40 42 45 50 52 55 57 64 59 47 40 36 33 30 30 28 27 26 24 23 25 27 27 27 25 18 16 16 14
34 33 31 29 30 31 31 31 32 33 34 35 36 37 39 41 43 45 49 52 54 57 64 61 47 39 36 34 31 29 28 27 26 25 23 23 24 25 25 25 20 16 15 14
31 31 31 31 31 31 31 32 33 33 34 35 37 38 40 42 43 46 49 52 54 57 63 63 47 40 36 34 32 30 29 28 27 26 25 23 22 23 24 24 23 19 15 14
31 32 32 32 31 31 31 32 33 33 34 36 37 39 41 42 43 46 49 52 53 57 61 64 49 40 37 35 34 31 29 29 28 26 25 23 22 22 23 23 22 22 19 17
33 33 33 32 31 32 33 33 33 34 34 36 38 40 41 42 44 47 49 51 53 55 59 64 51 41 38 36 34 33 31 29 28 26 25 24 23 22 22 22 22 21 20 19
31 31 32 31 32 32 33 33 34 34 36 37 39 41 43 44 45 48 49 52 53 55 58 64 52 42 40 37 35 33 32 30 28 27 25 24 23 22 22 22 21 21 20 19
Wind_Direction
19 20 18 14 6 358 352 347 341 343 334 315 305 304 306 307 307 309 310 314 320 318 320 316 317 318 325 330 333 337 350 355 10 251 194 221 227 232 235 219 227 228 221 222
21 20 18 12 8 3 358 350 348 346 344 339 330 321 320 320 319 321 325 328 330 330 333 330 327 320 318 321 325 333 334 348 358 10 194 225 149 156 155 201 223 221 226 224
16 19 17 14 8 5 359 353 350 346 339 335 333 337 331 327 324 325 327 330 337 340 335 335 340 336 327 323 319 324 324 327 355 3 14 255 207 157 156 151 203 221 215 226
13 18 14 13 10 5 1 353 352 346 346 342 339 338 332 331 329 332 331 330 330 330 332 334 337 345 350 342 334 324 315 317 296 350 7 21 351 336 95 189 199 211 223 233
13 14 10 8 8 4 2 352 351 350 351 349 347 341 336 334 330 328 325 325 326 330 330 332 337 340 338 342 346 346 330 325 319 280 353 1 46 55 19 211 216 218 218 238
11 8 7 5 4 3 3 2 354 352 354 353 349 346 343 337 334 331 328 327 324 322 322 324 327 332 332 336 336 340 340 337 328 313 281 3 23 48 56 269 247 248 250 244
6 8 7 0 1 359 359 1 356 353 354 352 349 349 345 341 340 336 332 330 324 320 318 319 320 321 324 326 329 330 332 334 333 328 317 288 244 90 109 286 252 247 254 249
357 1 3 358 355 356 359 359 358 351 348 350 351 353 349 347 344 341 339 334 330 326 322 318 317 319 319 319 321 324 326 327 326 324 312 253 219 225 244 237 228 250 255 253
354 352 352 353 354 354 357 357 359 360 356 354 353 353 353 353 351 346 342 336 332 328 324 320 316 314 318 321 320 319 319 320 321 319 316 304 254 228 221 218 222 224 231 243
345 348 344 345 349 349 351 355 360 2 1 360 355 355 356 356 355 350 344 341 336 333 330 324 319 317 316 317 320 323 318 313 310 310 308 305 293 266 239 228 224 224 226 228
336 341 340 340 340 344 344 350 356 360 2 0 0 1 359 356 355 355 352 347 344 341 338 334 328 323 321 320 320 319 319 320 309 300 299 300 297 291 279 252 238 230 228 227
338 338 338 336 337 337 342 347 350 355 359 1 3 3 3 2 1 357 356 352 348 344 339 337 336 331 326 323 321 318 315 314 312 307 291 288 291 290 282 276 263 246 238 232
339 338 340 339 335 336 340 344 344 348 354 357 0 360 0 3 5 3 359 356 351 345 342 337 333 330 327 324 320 318 317 316 314 309 300 289 282 283 288 286 277 269 256 241
339 337 337 340 335 337 338 339 338 342 348 350 353 355 357 358 1 3 4 0 355 349 342 338 334 330 328 326 324 322 321 319 316 313 310 302 292 285 282 282 283 282 275 263
332 336 334 337 339 338 334 334 335 337 339 343 348 351 355 357 356 358 360 2 0 353 346 338 335 333 331 328 326 324 322 320 317 315 312 308 303 299 294 289 285 282 279 273
325 329 332 334 337 337 334 332 332 333 335 339 344 349 352 354 354 353 354 355 359 358 350 341 335 333 331 328 326 324 323 322 320 318 315 310 307 304 301 296 290 284 280 276
320 325 328 330 331 332 332 331 329 332 334 336 341 346 347 349 350 351 351 352 353 355 355 345 337 333 331 330 327 325 322 321 322 321 319 317 315 314 312 306 299 290 280 274
314 319 323 325 326 329 332 332 329 329 330 332 336 341 343 345 347 348 350 350 349 352 354 348 339 334 333 332 329 326 322 321 322 322 323 325 325 323 321 323 318 309 299 285
311 315 317 319 322 326 329 330 327 326 328 330 331 334 338 341 344 346 347 348 347 348 351 349 340 335 334 331 329 326 324 321 322 325 327 331 332 332 333 329 324 323 323 319
306 309 314 316 319 322 325 328 328 327 325 327 328 329 332 337 340 342 344 346 346 346 349 349 340 335 334 331 329 327 324 322 322 325 327 332 335 336 338 331 326 327 328 329
302 308 312 313 315 318 322 326 326 324 324 324 325 327 329 333 337 339 340 343 344 344 346 349 340 336 334 332 329 327 325 323 321 323 325 330 334 338 342 334 324 324 327 332
302 306 309 310 312 316 320 324 325 323 322 322 326 327 328 331 334 337 338 340 341 344 344 348 341 337 334 332 329 326 325 322 319 319 320 324 331 337 341 342 322 318 319 322
302 302 304 308 311 312 315 319 321 320 322 323 325 326 328 330 332 334 336 337 340 343 342 347 340 336 334 332 329 326 325 323 318 315 314 317 323 331 338 343 335 310 304 308
297 299 303 307 309 309 313 318 318 319 319 320 323 325 327 327 330 332 334 336 338 341 340 345 340 335 334 330 328 326 325 322 320 314 311 311 314 321 329 337 342 333 305 296
298 300 303 305 306 308 310 312 314 318 319 319 321 323 324 326 329 331 333 336 337 339 340 343 340 333 333 329 325 324 323 320 320 313 309 306 306 311 317 325 332 338 331 303
297 300 301 303 306 309 309 311 313 315 317 317 318 320 322 325 328 330 331 334 335 336 338 341 339 331 330 329 326 323 321 319 316 314 308 303 300 301 307 312 320 324 329 333
300 301 302 304 305 304 306 308 312 314 314 314 316 319 322 324 326 328 329 332 333 334 337 339 338 331 329 329 325 322 320 317 315 312 307 303 299 296 297 302 309 314 318 323
Height
5681 5674 5668 5665 5661 5657 5653 5648 5644 5640 5635 5629 5625 5621 5617 5612 5607 5601 5595 5590 5583 5576 5570 5565 5561 5555 5552 5547 5540 5534 5529 5522 5513 5511 5509 5508 5508 5510 5513 5519 5530 5544 5560 5574
5681 5675 5669 5665 5660 5655 5650 5645 5642 5637 5631 5625 5621 5617 5613 5608 5602 5596 5590 5584 5579 5571 5564 5559 5553 5548 5544 5540 5536 5531 5527 5522 5516 5509 5506 5507 5508 5506 5508 5518 5526 5540 5553 5565
5681 5674 5668 5665 5658 5653 5648 5644 5640 5635 5630 5624 5619 5614 5610 5605 5599 5593 5587 5580 5574 5568 5562 5556 5550 5543 5537 5532 5529 5526 5524 5522 5519 5514 5507 5505 5506 5504 5504 5510 5521 5533 5548 5557
5680 5673 5668 5663 5657 5652 5648 5642 5638 5633 5628 5623 5617 5612 5605 5600 5594 5589 5582 5576 5571 5565 5560 5554 5549 5542 5534 5528 5525 5521 5518 5518 5517 5516 5512 5505 5502 5500 5498 5505 5518 5532 5541 5549
5677 5671 5668 5661 5657 5652 5647 5643 5637 5631 5625 5620 5614 5609 5603 5596 5590 5584 5579 5573 5567 5562 5556 5551 5546 5541 5534 5528 5522 5519 5514 5511 5510 5510 5510 5506 5500 5500 5499 5504 5514 5525 5534 5544
5676 5670 5666 5661 5655 5650 5645 5641 5635 5629 5623 5618 5612 5607 5600 5594 5586 5581 5575 5569 5563 5558 5553 5548 5543 5540 5534 5528 5521 5517 5512 5507 5504 5501 5501 5499 5495 5496 5500 5505 5513 5518 5527 5534
5675 5670 5665 5659 5654 5648 5644 5642 5632 5627 5621 5616 5610 5604 5597 5590 5583 5576 5570 5565 5559 5553 5548 5543 5539 5535 5531 5527 5520 5515 5510 5505 5501 5497 5493 5491 5493 5498 5503 5507 5510 5516 5521 5524
5673 5668 5664 5659 5654 5649 5644 5637 5631 5626 5621 5615 5608 5601 5595 5587 5580 5574 5567 5560 5554 5548 5543 5538 5534 5530 5527 5523 5518 5513 5507 5502 5500 5496 5493 5492 5495 5498 5499 5502 5505 5508 5509 5514
5671 5667 5663 5659 5653 5649 5643 5637 5631 5625 5618 5612 5605 5599 5592 5585 5578 5570 5563 5557 5550 5544 5539 5534 5530 5526 5522 5518 5514 5509 5505 5501 5496 5492 5490 5487 5487 5490 5495 5498 5501 5503 5506 5508
5668 5666 5661 5656 5651 5647 5642 5637 5630 5623 5617 5609 5604 5597 5589 5582 5575 5568 5561 5555 5548 5542 5535 5530 5525 5521 5517 5513 5508 5505 5502 5499 5495 5491 5487 5485 5484 5484 5486 5489 5493 5495 5500 5502
5666 5663 5660 5655 5651 5646 5641 5635 5629 5622 5616 5610 5602 5595 5588 5581 5575 5568 5559 5551 5544 5538 5531 5526 5521 5516 5512 5509 5505 5501 5497 5494 5491 5487 5484 5481 5479 5478 5477 5478 5481 5485 5489 5491
5664 5660 5657 5653 5648 5644 5639 5633 5627 5621 5615 5609 5602 5595 5588 5581 5573 5565 5558 5549 5542 5535 5529 5522 5517 5512 5508 5504 5500 5497 5494 5490 5487 5484 5481 5479 5476 5475 5475 5475 5475 5477 5478 5479
5661 5657 5653 5648 5644 5640 5635 5629 5625 5620 5613 5607 5601 5595 5588 5580 5572 5564 5556 5548 5541 5533 5526 5520 5514 5509 5504 5499 5495 5491 5487 5483 5480 5478 5475 5474 5472 5470 5467 5467 5468 5468 5468 5470
5657 5653 5649 5645 5641 5636 5631 5627 5622 5617 5611 5605 5600 5593 5586 5578 5571 5563 5556 5547 5539 5531 5524 5517 5511 5505 5500 5495 5490 5486 5481 5477 5473 5470 5468 5466 5464 5463 5461 5459 5458 5457 5457 5458
5653 5649 5645 5641 5636 5632 5628 5624 5619 5614 5609 5603 5597 5590 5583 5575 5568 5561 5553 5545 5537 5529 5521 5514 5506 5500 5494 5489 5485 5480 5476 5472 5468 5464 5461 5459 5457 5454 5452 5450 5448 5446 5444 5445
5650 5645 5641 5636 5631 5627 5623 5619 5615 5610 5605 5600 5593 5586 5579 5573 5566 5559 5551 5543 5535 5526 5517 5509 5502 5495 5489 5484 5479 5474 5470 5466 5462 5459 5455 5451 5448 5446 5443 5440 5438 5435 5433 5432
5645 5641 5636 5632 5628 5623 5619 5615 5610 5605 5600 5595 5589 5583 5576 5570 5564 5556 5548 5540 5532 5523 5514 5504 5496 5490 5484 5479 5473 5469 5464 5460 5456 5452 5448 5444 5440 5435 5431 5428 5424 5422 5422 5422
5640 5636 5632 5627 5623 5618 5613 5609 5605 5601 5596 5591 5585 5579 5573 5567 5559 5551 5543 5534 5526 5518 5509 5499 5491 5484 5478 5472 5467 5463 5458 5454 5450 5446 5442 5437 5433 5427 5422 5417 5412 5409 5406 5404
5634 5630 5627 5622 5618 5613 5608 5604 5601 5596 5591 5586 5581 5575 5570 5562 5555 5547 5539 5530 5521 5511 5503 5493 5485 5478 5472 5467 5462 5457 5453 5448 5444 5440 5436 5431 5426 5421 5416 5410 5406 5403 5400 5398
5629 5625 5621 5616 5612 5608 5604 5600 5595 5591 5586 5581 5576 5571 5565 5558 5551 5542 5535 5526 5517 5507 5498 5488 5479 5472 5466 5461 5456 5451 5447 5443 5439 5435 5431 5427 5422 5417 5411 5406 5402 5399 5396 5394
5622 5618 5614 5610 5606 5602 5598 5593 5589 5585 5581 5576 5571 5565 5559 5553 5546 5538 5530 5522 5513 5503 5493 5483 5474 5467 5461 5455 5450 5446 5442 5437 5434 5430 5427 5423 5418 5413 5408 5403 5399 5396 5394 5391
5614 5610 5606 5603 5599 5595 5591 5587 5583 5579 5575 5570 5565 5559 5554 5547 5540 5533 5524 5516 5508 5498 5488 5478 5469 5461 5455 5450 5445 5441 5436 5432 5429 5425 5422 5418 5414 5409 5405 5400 5397 5394 5392 5390
5605 5602 5599 5596 5592 5588 5584 5581 5577 5572 5567 5562 5558 5553 5547 5541 5534 5527 5519 5511 5502 5493 5482 5472 5463 5456 5450 5445 5439 5435 5431 5427 5423 5419 5416 5413 5410 5406 5402 5397 5393 5391 5389 5387
5597 5594 5591 5588 5585 5581 5577 5573 5569 5565 5561 5556 5551 5546 5540 5534 5528 5520 5513 5504 5496 5487 5477 5467 5458 5451 5446 5440 5435 5430 5425 5421 5417 5413 5410 5407 5405 5401 5398 5394 5390 5386 5384 5383
5589 5587 5584 5581 5577 5574 5570 5566 5562 5558 5553 5549 5544 5539 5533 5527 5521 5514 5506 5498 5490 5481 5471 5462 5453 5446 5440 5435 5429 5424 5420 5415 5411 5407 5404 5401 5398 5396 5393 5390 5387 5383 5379 5377
5582 5579 5576 5573 5570 5566 5562 5558 5555 5551 5546 5542 5537 5532 5526 5520 5514 5507 5500 5492 5484 5475 5467 5457 5448 5441 5435 5429 5423 5418 5413 5409 5405 5401 5398 5395 5392 5390 5388 5385 5382 5379 5376 5373
5572 5570 5568 5565 5562 5559 5555 5551 5547 5543 5539 5534 5530 5524 5518 5512 5506 5500 5492 5485 5477 5469 5461 5451 5442 5434 5428 5422 5416 5411 5406 5402 5398 5395 5392 5389 5386 5384 5382 5380 5377 5375 5372 5369